Regional Weather Roundup
Issued by NWS Upton, NY

Current Version | Previous Version | Text Only | Print | Product List | Glossary On
Versions: 1 2 3 4 5 6 7 8 9 10 11 12 13 14 15 16 17 18 19 20 21 22 23 24 25 26 27 28 29 30 31 32 33 34 35 36 37 38 39 40 41 42 43 44 45 46 47 48 49 50
000 ASUS41 KOKX 020205 RWROKX REGIONAL WEATHER ROUNDUP NATIONAL WEATHER SERVICE NEW YORK NY 1000 PM EDT WED OCT 01 2014 NOTE: "FAIR" INDICATES FEW OR NO CLOUDS BELOW 12,000 FEET WITH NO SIGNIFICANT WEATHER AND/OR OBSTRUCTIONS TO VISIBILITY. NYZ071-072-176-178-NJZ106-104-020300- NEW YORK CITY METRO AREA CITY SKY/WX TMP DP RH WIND PRES REMARKS CENTRAL PARK CLOUDY 63 55 75 E6 30.10R LAGUARDIA APRT CLOUDY 65 56 72 NE13 30.07R KENNEDY INTL CLOUDY 63 56 78 NE12 30.07S NEWARK/LIBERTY CLOUDY 64 57 78 NE8 30.07S BRNX BOT. GARD N/A 61 55 82 E1 30.08S TETERBORO CLOUDY 64 56 75 NE5 30.06S $$ NYZ177-179-078>081-020300- LONG ISLAND NEW YORK CITY SKY/WX TMP DP RH WIND PRES REMARKS FARMINGDALE CLOUDY 61 57 87 NE10 30.07R ISLIP DRIZZLE 60 57 89 NE8 30.05R SHIRLEY LGT RAIN 59 57 93 N7 30.07R FOG WESTHAMPTON LGT RAIN 59 57 93 N10 30.07R FOG MONTAUK POINT N/A 60 57 89 N15G24 30.05S $$ NYZ052-065-067-020300- HUDSON VALLEY CITY SKY/WX TMP DP RH WIND PRES REMARKS WHITE PLAINS MOCLDY 59 55 87 N6 30.07S NEWBURGH CLOUDY 61 59 94 NE8 30.11R FOG MONTGOMERY CLOUDY 61 58 90 N7 30.10R POUGHKEEPSIE CLOUDY 60 58 92 CALM 30.09S ALBANY LGT RAIN 61 58 90 N3 30.13R $$ NJZ001-105-106-008-010-013-015-019>022-104-020300- NEW JERSEY CITY SKY/WX TMP DP RH WIND PRES REMARKS NEWARK/LIBERTY CLOUDY 64 57 78 NE8 30.07S TETERBORO CLOUDY 64 56 75 NE5 30.06S CALDWELL CLOUDY 62 56 80 VRB3 30.08S MORRISTOWN DRIZZLE 63 59 88 E7 30.08R SOMERVILLE MOCLDY 62 57 83 CALM 30.06R LINDEN CLOUDY 68 60 74 NE8 30.08S SUSSEX CLOUDY 64 57 78 N6 30.09S ANDOVER N/A 61 58 90 NE5 30.09S TRENTON CLOUDY 64 57 78 NE3 30.06S MILLVILLE PTCLDY 61 58 90 N5 30.06R ATLANTIC CITY CLOUDY 62 59 90 N6 30.06R WRIGHTSTOWN CLOUDY 62 59 93 N5 30.04S TOMS RIVER CLOUDY 61 59 94 N3 30.06S BELMAR MOCLDY 63 55 77 N5 30.06R $$ PAZ047>061-062-071-020300- EASTERN PENNSYLVANIA CITY SKY/WX TMP DP RH WIND PRES REMARKS PHILADELPHIA MOCLDY 66 57 72 NE7G17 30.07R ALLENTOWN CLOUDY 62 56 80 CALM 30.09R SCRANTON CLOUDY 62 54 74 E3 30.09S $$ CTZ002-004>006-009-010-012-RIZ004-006-007-MAZ004-011-015-020300- SOUTHERN NEW ENGLAND IN CT CITY SKY/WX TMP DP RH WIND PRES REMARKS BRADLEY INTL CLOUDY 60 55 83 N8 30.10S HARTFORD CLOUDY 59 55 87 N10 30.10R DANBURY CLOUDY 58 56 93 NE6 30.10S WTRBRY/OXFORD CLOUDY 57 52 82 NE8G17 30.10S BRIDGEPORT CLOUDY 60 57 89 NE12 30.08R MERIDEN CLOUDY 59 55 87 N7 30.09R NEW HAVEN CLOUDY 62 56 80 N12 30.08R CHESTER CLOUDY 57 55 94 N8 30.09R GROTON CLOUDY 57 56 96 N14 30.06R WILLIMANTIC LGT RAIN 58 55 90 N7 30.09R IN RI CITY SKY/WX TMP DP RH WIND PRES REMARKS PROVIDENCE LGT RAIN 58 57 97 N13 30.08R FOG BLOCK ISLAND CLOUDY 59 55 88 N13G18 30.05R WESTERLY LGT RAIN 58 56 93 N9 30.07R FOG IN MA CITY SKY/WX TMP DP RH WIND PRES REMARKS BOSTON LGT RAIN 57 56 96 NE17G28 30.11R FOG WORCESTER LGT RAIN 54 53 97 NE9 30.12R FOG WESTFIELD CLOUDY 59 55 87 N8 30.12R PROVINCETOWN CLOUDY 61 57 88 NE16G23 30.07S NANTUCKET LGT RAIN 61 59 93 NE20G29 29.98F $$ ANZ330-335-338-340-345-350-353-355-020300- COASTAL MARINE OBSERVATIONS STATION/POSITION TIME SKY/WX TEMP WIND PRES VSBY WAVE AIR SEA DIR/SP/G HT/PER (UTC) (F) (DEG/KT/KT) (MB) (MI) (FT/S) NY HARB ENTRANCE NOT AVBL 4S FIRE IS NOT AVBL 20S FIRE ISLAND 0100 62 67 20/ 17/ 21 1016.7 5/ 6 23SW MTP 0200 N/A 7/ 6 HUDSON CANYON 0100 65 70 20/ 21/ 25 1014.6 8/ 7 EXECUTION ROCKS 0200 63 68 30/ 14/ 17 N/A WESTERN LI SOUND 0100 63 40/ 14/ 17 N/A 2/ 4 CENTRAL LI SOUND 0100 60 68 10/ 14/ 17 N/A 2/ 4 EASTERN LI SOUND 0100 60 65 20/ 16/ 19 N/A ROBBINS REEF 0100 64 50/ 12/ 15 1016.8 $$ >>>>>>>>>>>>>>>>>>>>>>>>>>>> KEY <<<<<<<<<<<<<<<<<<<<<<<<<<< > < > SKY/WX - SKY CONDITION/PRESENT WEATHER < > TMP - TEMPERATURE IN FAHRENHEIT < > DP - DEWPOINT IN FAHRENHEIT < > RH - RELATIVE HUMIDITY IN PERCENT < > WIND - DIRECTION AND SPEED IN MPH < > PRES - MEAN SEA LEVEL PRESSURE IN INCHES OF HG < > WCI - WIND CHILL INDEX < > VSB - VISIBILITY IN MILES < > HX - HEAT INDEX < > TC - TEMPERATURE IN CELSIUS < > VRB - VARIABLE WIND DIRECTION < > < >>>>>>>>>>>>>>>>>>>>>>>>>>>> KEY <<<<<<<<<<<<<<<<<<<<<<<<<<<

USA.gov is the U.S. government's official web portal to all federal, state and local government web resources and services.